DW0805 Ramloese DK current weather conditions

sailwx.info

Wind from 088

Air temperature -0.6° C
Dewpoint -1.7° C

Last reported at 2018-Feb-21 01:05 UTC.
Time now 2018-Feb-21 01:40 UTC

Location: N 56°01' E 012°05'.
View on Google Maps.

See reports from other nearby stations

  
Tides and Currents Weather Stations Pressure Air Temp Water Temp Dewpoint Dewpoint Depression Visibility Wind Speed Wind Dir Waves Ship Positions
date/time (UTC)wind fromknots sea level pressurealtimeterstation pressurevisibilityair tempwater tempwave heightnotes
2018-Feb-21 01:05 088 -0.6
2018-Feb-21 00:55 087 -0.0
2018-Feb-21 00:35 088 -0.0
2018-Feb-21 00:25 088 -0.0
2018-Feb-21 00:15 087 -0.0
2018-Feb-21 00:05 088 -0.0
2018-Feb-20 23:55 087 -0.0
2018-Feb-20 23:35 088 0.6
2018-Feb-20 23:25 087 0.6
2018-Feb-20 23:15 088 0.6
2018-Feb-20 23:05 088 0.6
2018-Feb-20 22:55 088 0.6
2018-Feb-20 22:45 088 0.6
2018-Feb-20 22:35 088 0.6
2018-Feb-20 22:25 088 0.6
2018-Feb-20 21:55 088 0.6
2018-Feb-20 21:45 087 0.6
2018-Feb-20 21:35 088 0.6
2018-Feb-20 21:25 087 0.6
2018-Feb-20 21:15 088 0.6
2018-Feb-20 20:55 088 1.1
2018-Feb-20 20:35 088 0.6
2018-Feb-20 20:25 087 0.6
2018-Feb-20 19:55 088 0.6
2018-Feb-20 19:45 088 0.6
2018-Feb-20 19:35 087 0.6
2018-Feb-20 19:05 088 0.6
2018-Feb-20 18:55 087 0.6
2018-Feb-20 18:45 087 0.6
2018-Feb-20 18:25 087 0.6
2018-Feb-20 18:05 087 0.6
2018-Feb-20 17:55 088 1.1
2018-Feb-20 17:35 087 1.1
2018-Feb-20 17:15 088 1.1
2018-Feb-20 16:45 088 1.1
2018-Feb-20 16:25 088 1.7
2018-Feb-20 16:15 088 1.7
2018-Feb-20 15:55 088 0 gusting 2 1.7
2018-Feb-20 15:45 087 1 gusting 5 1.7
2018-Feb-20 15:35 088 2 gusting 6 1.7
2018-Feb-20 15:25 092 0 gusting 6 1.7
2018-Feb-20 14:55 109 2 gusting 6 2.2
2018-Feb-20 14:45 103 1 gusting 6 2.2
2018-Feb-20 14:25 098 0 gusting 6 2.8
2018-Feb-20 14:15 099 1 gusting 6 2.8
2018-Feb-20 14:05 105 2 gusting 6 2.8
2018-Feb-20 13:55 101 2 gusting 6 2.8
2018-Feb-20 13:45 120 5 gusting 8 2.8
2018-Feb-20 13:35 101 2 gusting 6 2.8
2018-Feb-20 13:25 109 2 gusting 7 2.8
2018-Feb-20 13:15 098 4 gusting 7 2.8
2018-Feb-20 13:05 102 4 gusting 7 2.8
2018-Feb-20 12:55 099 5 gusting 8 2.8
2018-Feb-20 12:45 113 3 gusting 6 2.8
2018-Feb-20 12:35 116 2 gusting 7 2.8
2018-Feb-20 12:25 128 3 gusting 6 2.8
2018-Feb-20 12:15 108 2 gusting 7 2.8
2018-Feb-20 12:05 109 5 gusting 8 2.8
2018-Feb-20 11:45 102 4 gusting 8 2.8
2018-Feb-20 11:35 093 2 gusting 8 2.8
2018-Feb-20 11:25 082 4 gusting 7 2.8
2018-Feb-20 11:05 086 5 gusting 8 3.3
2018-Feb-20 10:55 089 4 gusting 7 2.8
2018-Feb-20 10:45 089 3 gusting 10 2.8
2018-Feb-20 10:35 087 4 gusting 7 2.2
2018-Feb-20 10:25 086 3 gusting 7 2.2
2018-Feb-20 10:05 090 1 gusting 6 1.7
2018-Feb-20 09:45 076 2 gusting 6 1.7
2018-Feb-20 09:25 067 1 gusting 6 1.1
2018-Feb-20 09:15 065 1 gusting 5 0.6
2018-Feb-20 08:55 068 2 gusting 6 0.6
2018-Feb-20 08:35 073 2 gusting 6 0.6
2018-Feb-20 08:25 064 1 gusting 5 -0.0
2018-Feb-20 08:15 065 2 gusting 6 -0.0
2018-Feb-20 08:05 065 2 gusting 5 -0.0
2018-Feb-20 07:55 065 2 gusting 6 -0.0
2018-Feb-20 07:45 068 2 gusting 5 -0.6
2018-Feb-20 07:35 068 2 gusting 5 -0.6
2018-Feb-20 07:25 069 0 gusting 2 -0.6
2018-Feb-20 07:15 069 1 gusting 5 -0.6
2018-Feb-20 06:55 069 2 gusting 5 -1.1
2018-Feb-20 06:35 069 2 gusting 5 -1.7
2018-Feb-20 06:25 069 2 gusting 6 -1.7
2018-Feb-20 06:15 075 2 gusting 5 -1.7
2018-Feb-20 06:05 080 2 gusting 5 -1.7
2018-Feb-20 05:55 081 1 gusting 5 -1.7
2018-Feb-20 05:35 083 2 gusting 5 -1.7
2018-Feb-20 05:25 085 1 gusting 5 -1.7
2018-Feb-20 05:15 084 0 gusting 2 -1.7
2018-Feb-20 04:55 085 2 gusting 5 -0.6
2018-Feb-20 04:45 085 2 gusting 5 -0.6
2018-Feb-20 04:35 086 2 gusting 6 -0.6
2018-Feb-20 04:25 086 4 gusting 6 -0.6
2018-Feb-20 04:15 087 3 gusting 6 -0.6
2018-Feb-20 04:05 088 3 gusting 6 -1.1
2018-Feb-20 03:55 098 2 gusting 4 -1.1
2018-Feb-20 03:45 099 0 gusting 2 -1.1
2018-Feb-20 03:25 098 1 gusting 2 -0.6
2018-Feb-20 03:15 099 1 gusting 2 -0.0
2018-Feb-20 02:55 098 2 gusting 4 -0.0
2018-Feb-20 02:45 098 2 gusting 6 -0.0
2018-Feb-20 02:15 098 3 gusting 6 -0.0
2018-Feb-20 01:45 101 1 gusting 6 -0.0
2018-Feb-20 01:35 102 3 gusting 7 -0.0
2018-Feb-20 01:25 097 4 gusting 7 -0.0
2018-Feb-20 01:15 099 4 gusting 6 -0.0
2018-Feb-20 01:05 103 4 gusting 6 0.6
2018-Feb-20 00:55 103 2 gusting 7 0.6
2018-Feb-20 00:45 111 2 gusting 8 0.6
2018-Feb-20 00:25 106 3 gusting 10 0.6
2018-Feb-20 00:15 108 4 gusting 11 0.6
2018-Feb-20 00:05 107 2 gusting 8 0.6
2018-Feb-19 23:55 118 4 gusting 10 0.6
2018-Feb-19 23:45 107 5 gusting 8 0.6
2018-Feb-19 23:35 102 4 gusting 8 0.6
2018-Feb-19 23:25 117 4 gusting 10 0.6
2018-Feb-19 23:15 128 4 gusting 8 0.6
2018-Feb-19 23:05 123 4 gusting 10 0.6
2018-Feb-19 22:55 119 4 gusting 7 1.1
2018-Feb-19 22:45 121 2 gusting 7 1.1
2018-Feb-19 22:35 114 4 gusting 7 1.1
2018-Feb-19 22:25 109 5 gusting 8 1.1
2018-Feb-19 21:55 115 4 gusting 8 1.1
2018-Feb-19 21:45 108 4 gusting 8 1.1
2018-Feb-19 21:35 114 3 gusting 7 1.1
2018-Feb-19 20:45 126 4 gusting 8 1.1
2018-Feb-19 20:25 119 4 gusting 7 1.1
2018-Feb-19 20:15 131 2 gusting 6 1.1
2018-Feb-19 19:55 134 2 gusting 6 1.1
2018-Feb-19 19:45 132 2 gusting 6 1.1
2018-Feb-19 19:35 129 2 gusting 6 1.1
2018-Feb-19 19:25 128 3 gusting 7 1.1
2018-Feb-19 19:15 138 2 gusting 6 1.1
2018-Feb-19 19:05 142 1 gusting 6 1.1
2018-Feb-19 18:55 137 3 gusting 6 1.1
2018-Feb-19 18:45 136 4 gusting 7 1.7
2018-Feb-19 18:25 152 1 gusting 4 1.7
2018-Feb-19 18:15 153 0 gusting 4 1.7
2018-Feb-19 18:05 155 2 gusting 6 1.7
2018-Feb-19 17:55 178 2 gusting 4 1.7
2018-Feb-19 17:45 185 0 gusting 4 1.7
2018-Feb-19 17:35 186 1 gusting 4 1.7
2018-Feb-19 17:15 187 1.7
2018-Feb-19 16:35 187 1 gusting 6 2.2
2018-Feb-19 16:25 188 0 gusting 4 2.2
2018-Feb-19 16:15 187 2.2
2018-Feb-19 16:05 187 1 gusting 2 2.8
2018-Feb-19 15:45 323 0 gusting 2 2.8
2018-Feb-19 15:35 187 2.8
2018-Feb-19 14:55 187 0 gusting 2 2.8
2018-Feb-19 14:45 187 2.8
2018-Feb-19 14:35 188 0 gusting 2 3.3
2018-Feb-19 14:25 186 3.3
2018-Feb-19 14:15 188 0 gusting 2 3.3
2018-Feb-19 14:05 188 1 gusting 2 3.3
2018-Feb-19 13:35 190 0 gusting 2 3.3
2018-Feb-19 13:15 191 0 gusting 4 3.9
2018-Feb-19 12:55 190 1 gusting 5 3.9
2018-Feb-19 12:45 191 1 gusting 5 3.9
2018-Feb-19 12:05 194 1 gusting 2 3.9
2018-Feb-19 11:55 193 0 gusting 2 3.9
2018-Feb-19 11:35 193 0 gusting 2 3.9
2018-Feb-19 10:45 195 1 gusting 5 2.8
2018-Feb-19 10:35 198 1 gusting 4 2.8
2018-Feb-19 10:15 198 0 gusting 2 2.2
2018-Feb-19 10:05 197 2 gusting 4 2.2
2018-Feb-19 09:55 197 1 gusting 2 2.2
2018-Feb-19 09:35 198 2.2
2018-Feb-19 09:25 197 0 gusting 2 2.2
2018-Feb-19 09:15 198 1.7
2018-Feb-19 08:55 196 1.1
2018-Feb-19 08:45 271 0 gusting 2 0.6
2018-Feb-19 08:15 200 0 gusting 2 -0.0
2018-Feb-19 07:45 199 0 gusting 2 -0.6
2018-Feb-19 07:15 203 1 gusting 2 -0.6
2018-Feb-19 07:05 207 -0.6
2018-Feb-19 06:45 320 -1.1
2018-Feb-19 06:35 211 0 gusting 2 -1.1
2018-Feb-19 06:25 211 0 gusting 2 -1.1
2018-Feb-19 06:15 211 1 gusting 2 -1.1
2018-Feb-19 06:05 211 0 gusting 2 -1.1
2018-Feb-19 05:45 211 1 gusting 2 -1.1
2018-Feb-19 05:35 211 1 gusting 2 -1.1
2018-Feb-19 05:25 211 0 gusting 1 -1.1
2018-Feb-19 05:15 211 0 gusting 2 -1.1
2018-Feb-19 04:55 211 0 gusting 2 -1.1
2018-Feb-19 04:45 211 1 gusting 2 -1.1
2018-Feb-19 04:35 211 0 gusting 2 -1.1
2018-Feb-19 04:25 211 1 gusting 2 -1.1
2018-Feb-19 04:15 211 0 gusting 2 -0.6
2018-Feb-19 04:05 211 1 gusting 4 -0.6
2018-Feb-19 03:45 211 2 gusting 4 -0.6
2018-Feb-19 03:35 211 1 gusting 2 -0.6
2018-Feb-19 03:15 211 1 gusting 2 -0.6
2018-Feb-19 03:05 211 0 gusting 2 -0.6
2018-Feb-19 02:55 211 1 gusting 2 -0.0
2018-Feb-19 02:15 211 0 gusting 2 -0.0
2018-Feb-19 02:05 211 1 gusting 2 -0.0
2018-Feb-19 01:45 211 1 gusting 4 -0.0
2018-Feb-19 01:35 211 1 gusting 4 -0.0
2018-Feb-19 01:25 211 1 gusting 2 -0.0
2018-Feb-19 01:15 211 0 gusting 2 -0.0
2018-Feb-19 01:05 211 1 gusting 2 -0.0